Zurück zum Katalog

STARLINK-30858

AktivKommunikationVLEO
NORAD 58358·PAYLOAD·🇺🇸 United States

Gestartet Nov 18, 2023 von Cape Canaveral Space Force Station

Loading…

Nächste Überflüge (nächste 24 Stunden)

TLE

AktuellSource: CelesTrak SupGP

Epoche: Sep 14, 2026, 20:57 UTC

1 58358C 23177H   26257.87340278  .00016965  00000+0  61442-3 0  2573
2 58358  43.0035   1.9129 0001537 274.7875  97.9995 15.27571900    10

Verfolge STARLINK-30858 in Echtzeit mit AllMySat

Download on the App Store